Terug naar catalogus

STARLINK-34644

ActiefCommunicatieVLEO
NORAD 64812·PAYLOAD·🇺🇸 United States

Gelanceerd Jul 16, 2025 vanaf Vandenberg Space Force Base

Loading…

Volgende Passages (komende 24 uur)

TLE

VersSource: CelesTrak SupGP

Epoch: Sep 14, 2026, 22:51 UTC

1 64812C 25150Y   26257.95256944 -.00052263  00000+0 -43796-2 0  2577
2 64812  70.0030  17.3167 0003331 271.7379  92.7309 14.98358337    16

Volg STARLINK-34644 in realtime met AllMySat

Download on the App Store